Date,TemperatureHighF,TemperatureAvgF,TemperatureLowF,DewpointHighF,DewpointAvgF,DewpointLowF,HumidityHigh,HumidityAvg,HumidityLow,PressureMaxIn,PressureMinIn,WindSpeedMaxMPH,WindSpeedAvgMPH,GustSpeedMaxMPH,PrecipitationSumIn
2013-1-1,56,42,35,42,37,31,98,85,50,0.00,40.00,3,2,5,0.04
2013-1-2,56,44,36,43,33,27,90,68,45,0.00,40.00,3,2,5,0.01
2013-1-3,54,45,36,47,38,29,97,79,60,0.00,40.00,9,4,16,0.31
2013-1-4,53,46,44,47,45,43,98,95,79,0.00,40.00,3,2,7,0.34
2013-1-5,49,45,41,45,43,40,98,93,81,0.00,40.00,5,2,10,0.15
2013-1-6,49,45,41,46,42,40,98,93,81,0.00,40.00,6,2,10,0.08
2013-1-7,49,48,44,48,47,43,98,96,92,0.00,40.00,7,4,11,0.27
2013-1-8,52,49,46,49,47,45,98,95,90,0.00,40.00,6,4,11,0.12
2013-1-9,49,43,35,47,40,34,97,90,69,0.00,40.00,8,4,18,0.73
2013-1-10,44,38,33,40,35,32,98,91,78,0.00,40.00,4,2,11,0.66
2013-1-11,45,38,33,41,36,32,97,93,84,0.00,40.00,4,2,8,0.19
2013-1-12,41,34,30,36,32,28,97,92,74,0.00,40.00,4,2,6,0.01
2013-1-13,40,30,26,31,28,25,96,89,66,0.00,40.00,3,2,7,0.01
2013-1-14,46,33,26,33,29,25,95,84,52,0.00,40.00,4,2,7,0.01
2013-1-15,49,37,29,37,32,27,94,83,55,0.00,40.00,5,3,8,0.01
2013-1-16,56,41,32,40,32,29,95,73,48,0.00,40.00,5,4,7,0.01
2013-1-17,67,43,35,47,36,30,97,78,29,0.00,40.00,3,2,7,0.00
2013-1-18,53,40,33,45,37,32,97,92,75,0.00,40.00,2,2,5,0.01
2013-1-19,47,37,32,41,36,31,98,96,79,0.00,40.00,5,2,7,0.01
2013-1-20,59,39,29,43,36,28,98,89,56,0.00,40.00,4,2,7,0.00
2013-1-21,63,42,30,37,32,27,92,71,26,0.00,40.00,3,2,5,0.01
2013-1-22,62,47,39,43,34,26,84,64,29,0.00,40.00,4,2,9,0.01
2013-1-23,47,44,40,44,42,39,98,92,76,0.00,40.00,3,2,8,0.87
2013-1-24,55,45,36,49,43,35,98,93,80,0.00,40.00,5,3,9,0.09
2013-1-25,50,47,42,49,45,41,98,96,92,0.00,40.00,5,4,10,0.36
2013-1-26,48,43,39,44,41,38,98,92,82,0.00,40.00,5,3,9,0.41
2013-1-27,43,40,37,42,39,36,97,96,91,0.00,40.00,4,2,8,1.05
2013-1-28,45,43,42,44,42,40,97,95,92,0.00,40.00,4,3,9,0.70
2013-1-29,46,43,41,44,42,40,98,96,92,0.00,40.00,4,2,8,0.33
2013-1-30,51,43,38,48,42,37,98,97,89,0.00,40.00,3,2,6,0.01
2013-1-31,52,45,40,47,43,39,98,93,79,0.00,40.00,4,3,7,0.01
2013-2-1,59,45,36,47,42,35,98,90,64,0.00,40.00,4,3,7,0.01
2013-2-2,56,46,40,46,42,37,96,86,62,0.00,40.00,4,2,8,0.01
2013-2-3,51,46,42,44,43,41,97,89,76,0.00,40.00,3,2,4,0.01
2013-2-4,48,43,38,45,41,37,98,92,83,0.00,40.00,6,3,12,0.00
2013-2-5,50,46,44,47,44,39,96,89,80,0.00,40.00,7,4,12,0.25
2013-2-6,50,45,38,45,41,36,96,87,69,0.00,40.00,9,5,15,0.53
2013-2-7,40,37,35,38,36,34,97,96,94,0.00,40.00,4,2,9,1.08
2013-2-8,47,39,33,39,36,32,98,90,69,0.00,40.00,4,2,11,0.01
2013-2-9,51,41,35,41,37,34,97,87,59,0.00,40.00,4,2,7,0.01
2013-2-10,47,44,40,41,39,37,98,86,71,0.00,40.00,4,3,8,0.00
2013-2-11,52,44,40,43,38,34,97,79,56,0.00,40.00,5,3,9,0.01
2013-2-12,53,46,43,50,45,42,98,96,86,0.00,40.00,3,2,5,0.11
2013-2-13,54,47,44,48,45,43,98,93,78,0.00,40.00,4,2,6,0.01
2013-2-14,56,46,39,47,44,38,98,91,69,0.00,40.00,6,3,10,0.01
2013-2-15,67,49,42,48,42,39,97,81,39,0.00,40.00,4,3,7,0.00
2013-2-16,51,46,42,45,43,41,97,90,69,0.00,40.00,4,2,7,0.05
2013-2-17,49,42,37,41,37,35,97,86,63,0.00,40.00,5,3,9,0.04
2013-2-18,47,39,34,39,36,33,96,89,69,0.00,40.00,6,3,10,0.04
2013-2-19,49,39,34,40,36,33,97,90,72,0.00,40.00,6,2,11,0.64
2013-2-20,47,41,36,42,39,35,97,92,73,0.00,40.00,4,2,7,0.29
2013-2-21,47,42,37,42,39,36,97,89,77,0.00,40.00,4,3,7,0.25
2013-2-22,47,44,40,44,42,38,97,92,85,0.00,40.00,9,5,18,0.43
2013-2-23,49,41,37,42,36,34,96,85,61,0.00,40.00,5,2,9,0.34
2013-2-24,54,41,32,42,35,31,97,84,44,0.00,40.00,5,3,9,0.01
2013-2-25,47,43,36,44,39,35,97,86,74,0.00,40.00,7,3,13,0.46
2013-2-26,51,38,31,39,34,30,96,86,49,0.00,40.00,3,2,5,0.06
2013-2-27,54,46,40,49,42,37,96,85,60,0.00,40.00,7,3,12,0.21
2013-2-28,51,50,50,50,49,48,98,96,93,0.00,40.00,7,5,14,0.46
2013-3-1,57,50,47,51,48,46,98,94,78,0.00,40.00,4,2,7,0.03
2013-3-2,51,48,43,49,46,42,98,95,84,0.00,40.00,5,2,12,0.03
2013-3-3,51,43,37,42,37,31,97,81,55,0.00,40.00,6,4,12,0.03
2013-3-4,54,42,33,43,36,30,92,79,64,0.00,40.00,6,3,12,0.00
2013-3-5,44,42,40,42,39,31,96,90,64,0.00,40.00,6,2,11,1.47
2013-3-6,47,42,39,43,40,37,95,91,85,0.00,40.00,7,4,14,0.51
2013-3-7,54,43,35,41,38,34,97,84,49,0.00,40.00,4,2,9,0.10
2013-3-8,53,41,31,43,37,30,97,88,57,0.00,40.00,5,2,11,0.00
2013-3-9,59,46,37,45,41,36,97,85,56,0.00,40.00,5,3,9,0.00
2013-3-10,61,47,35,47,40,33,98,81,41,0.00,40.00,5,3,8,0.01
2013-3-11,59,49,45,52,46,44,98,91,63,0.00,40.00,6,3,9,0.01
2013-3-12,55,48,44,51,46,43,98,93,75,0.00,40.00,3,2,6,0.01
2013-3-13,60,48,44,50,46,43,98,92,65,0.00,40.00,4,2,6,0.00
2013-3-14,60,48,43,46,44,42,98,88,60,0.00,40.00,5,3,10,0.00
2013-3-15,60,51,46,51,47,45,97,88,71,0.00,40.00,3,2,6,0.00
2013-3-16,48,46,42,46,45,41,98,96,89,0.00,40.00,6,3,12,0.26
2013-3-17,51,42,37,41,36,33,96,81,56,0.00,40.00,4,2,7,0.08
2013-3-18,53,42,35,43,37,32,94,81,50,0.00,40.00,6,3,9,0.00
2013-3-19,57,49,44,49,43,37,93,81,55,0.00,40.00,8,4,16,0.38
2013-3-20,53,48,40,49,43,34,97,85,67,0.00,40.00,11,6,21,0.71
2013-3-21,50,40,36,39,35,33,96,83,59,0.00,40.00,4,2,8,0.02
2013-3-22,48,40,35,38,35,31,97,83,54,0.00,40.00,6,3,10,0.06
2013-3-23,51,40,31,35,33,30,96,78,49,0.00,40.00,6,3,10,0.01
2013-3-24,55,43,35,38,35,32,94,76,45,0.00,40.00,4,2,7,0.00
2013-3-25,51,44,37,43,40,35,96,87,69,0.00,40.00,3,2,6,0.00
2013-3-26,60,48,43,45,42,40,96,82,49,0.00,40.00,3,2,6,0.00
2013-3-27,56,49,45,51,46,43,96,88,76,0.00,40.00,5,3,9,0.06
2013-3-28,59,52,48,49,48,46,96,84,65,0.00,40.00,4,3,7,0.00
2013-3-29,67,54,47,54,49,46,98,85,50,0.00,40.00,6,3,9,0.01
2013-3-30,72,55,45,55,46,-100,98,81,46,0.00,40.00,5,3,10,0.01
2013-3-31,56,53,50,51,50,47,97,89,77,0.00,40.00,4,2,6,0.00
2013-4-1,52,49,47,51,48,46,98,97,93,0.00,40.00,4,2,6,0.03
2013-4-2,62,50,46,53,48,45,98,92,70,0.00,40.00,3,2,6,0.02
2013-4-3,60,50,45,53,47,44,98,92,76,0.00,40.00,3,2,6,0.02
2013-4-4,54,51,48,52,50,47,98,97,93,0.00,40.00,9,5,18,1.12
2013-4-5,53,51,49,50,49,48,97,93,84,0.00,40.00,9,7,17,0.70
2013-4-6,53,51,49,50,48,46,97,92,82,0.00,40.00,10,7,17,0.37
2013-4-7,52,46,40,50,44,39,96,93,78,0.00,40.00,11,5,21,0.77
2013-4-8,52,44,38,44,40,37,97,87,64,0.00,40.00,4,2,9,0.34
2013-4-9,64,49,40,47,42,37,97,78,48,0.00,40.00,3,2,6,0.01
2013-4-10,52,48,44,50,46,37,97,93,72,0.00,40.00,5,3,8,0.09
2013-4-11,53,46,39,46,42,38,97,84,61,0.00,40.00,7,4,12,0.01
2013-4-12,56,45,37,45,42,36,97,89,64,0.00,40.00,5,3,9,0.07
2013-4-13,50,45,39,45,37,34,97,77,54,0.00,40.00,5,3,8,0.14
2013-4-14,49,42,36,41,38,34,94,85,68,0.00,40.00,5,2,7,0.05
2013-4-15,48,42,37,40,38,36,96,86,67,0.00,40.00,4,2,9,0.45
2013-4-16,54,46,39,45,40,38,96,81,57,0.00,40.00,5,2,9,0.02
2013-4-17,57,47,42,44,41,38,92,80,60,0.00,40.00,5,2,10,0.01
2013-4-18,59,49,45,47,44,40,96,82,51,0.00,40.00,4,2,8,0.01
2013-4-19,51,48,47,50,48,46,98,97,96,0.00,40.00,5,3,10,0.24
2013-4-20,57,49,45,49,46,43,98,90,69,0.00,40.00,5,3,10,0.11
2013-4-21,64,50,44,47,44,40,95,79,43,0.00,40.00,5,3,8,0.01
2013-4-22,63,51,44,46,43,35,96,76,51,0.00,40.00,7,4,15,0.00
2013-4-23,62,51,42,44,38,34,91,63,37,0.00,40.00,8,5,15,0.00
2013-4-24,80,55,40,44,39,25,97,63,15,0.00,40.00,7,4,14,0.00
2013-4-25,66,52,43,48,44,41,97,76,49,0.00,40.00,7,4,12,0.00
2013-4-26,71,52,44,53,46,43,98,85,53,0.00,40.00,4,3,7,0.00
2013-4-27,65,50,43,48,44,42,97,83,50,0.00,40.00,4,2,7,0.00
2013-4-28,62,51,46,50,46,43,95,83,62,0.00,40.00,5,3,8,0.00
2013-4-29,55,50,47,49,46,37,97,88,52,0.00,40.00,6,3,12,0.08
2013-4-30,53,47,38,37,35,31,81,65,47,0.00,40.00,7,5,16,0.01
2013-5-1,57,47,37,43,37,34,89,69,45,0.00,40.00,7,5,16,0.00
2013-5-2,68,54,44,43,41,37,94,66,34,0.00,40.00,9,5,15,0.00
2013-5-3,62,51,44,48,44,42,96,79,51,0.00,40.00,7,5,14,0.00
2013-5-4,81,61,44,49,43,30,97,59,22,0.00,40.00,6,4,11,0.00
2013-5-5,79,64,53,48,39,30,81,44,21,0.00,40.00,7,4,16,0.00
2013-5-6,67,56,50,51,49,46,97,78,56,0.00,40.00,5,3,8,0.00
2013-5-7,54,51,49,49,48,47,98,92,83,0.00,40.00,5,3,10,0.00
2013-5-8,62,54,49,50,48,46,95,82,61,0.00,40.00,4,2,7,0.00
2013-5-9,64,51,48,53,48,46,100,89,67,0.00,40.00,6,3,10,0.00
2013-5-10,62,50,47,52,44,-100,100,91,70,0.00,40.00,3,2,7,0.00
2013-5-11,76,58,47,57,49,-100,100,79,41,0.00,40.00,4,2,7,0.00
2013-5-12,65,58,53,55,53,51,100,86,65,0.00,40.00,5,4,10,0.00
2013-5-13,59,53,48,54,52,48,100,97,81,0.00,40.00,5,3,9,0.04
2013-5-14,62,52,47,49,47,44,100,85,56,0.00,40.00,5,3,9,0.01
2013-5-15,61,52,46,51,47,44,97,84,57,0.00,40.00,5,2,8,0.02
2013-5-16,58,48,50,52,34,-100,99,93,74,0.00,40.00,5,3,9,0.12
2013-5-17,60,53,47,52,45,-100,100,87,62,0.00,40.00,4,2,7,0.04
2013-5-18,56,51,47,52,48,46,100,91,78,0.00,40.00,6,3,11,0.09
2013-5-19,59,52,49,50,48,45,100,88,64,0.00,40.00,7,4,14,0.17
2013-5-20,62,52,45,51,48,45,100,86,65,0.00,40.00,5,3,12,0.01
2013-5-21,50,47,42,48,44,39,99,92,76,0.00,40.00,7,4,13,0.48
2013-5-22,47,44,42,46,43,40,99,97,93,0.00,40.00,6,4,10,1.44
2013-5-23,55,48,42,48,46,42,100,91,68,0.00,40.00,6,3,10,0.22
2013-5-24,57,50,46,47,46,44,100,86,68,0.00,40.00,4,3,7,0.18
2013-5-25,59,50,42,51,47,42,100,90,68,0.00,40.00,5,3,9,0.10
2013-5-26,57,52,49,51,50,49,100,93,76,0.00,40.00,6,4,11,0.33
2013-5-27,57,53,50,55,52,49,100,97,87,0.00,40.00,9,6,15,0.61
2013-5-28,61,53,49,53,50,49,100,91,64,0.00,40.00,8,4,12,0.23
2013-5-29,56,52,49,53,51,48,100,94,83,0.00,40.00,9,4,16,0.11
2013-5-30,62,53,46,50,47,43,100,82,51,0.00,40.00,4,2,7,0.02
2013-5-31,62,53,43,51,47,43,100,83,59,0.00,40.00,7,4,13,0.00
2013-6-1,69,56,48,55,50,43,100,82,47,0.00,40.00,5,3,8,0.00
2013-6-2,59,53,51,55,52,48,100,94,79,0.00,40.00,7,4,15,0.10
2013-6-3,59,53,48,52,49,47,98,86,72,0.00,40.00,8,6,17,0.01
2013-6-4,61,54,47,53,50,47,100,88,62,0.00,40.00,8,6,16,0.00
2013-6-5,60,53,50,54,52,50,100,96,80,0.00,40.00,8,6,15,0.01
2013-6-6,59,52,49,53,50,49,100,94,75,0.00,40.00,8,5,15,0.01
2013-6-7,71,56,50,53,50,36,100,82,28,0.00,40.00,7,4,13,0.01
2013-6-8,61,54,49,52,50,48,100,88,66,0.00,40.00,9,6,17,0.00
2013-6-9,58,53,48,51,48,45,95,83,65,0.00,40.00,9,7,18,0.00
2013-6-10,59,53,47,48,46,43,94,76,56,0.00,40.00,7,6,15,0.00
2013-6-11,62,54,48,50,47,45,98,80,55,0.00,40.00,5,3,9,0.00
2013-6-12,60,52,44,51,48,44,100,87,65,0.00,40.00,5,2,9,0.00
2013-6-13,61,53,47,51,49,46,100,88,67,0.00,40.00,4,2,7,0.04
2013-6-14,64,54,43,51,49,43,100,85,63,0.00,40.00,8,4,15,0.01
2013-6-15,63,54,49,55,52,48,100,91,72,0.00,40.00,4,2,6,0.00
2013-6-16,62,54,47,52,50,46,99,88,70,0.00,40.00,6,2,9,0.00
2013-6-17,63,54,48,56,52,48,100,93,66,0.00,40.00,7,3,14,0.04
2013-6-18,61,54,49,53,50,48,99,88,68,0.00,40.00,6,4,11,0.12
2013-6-19,60,54,50,54,52,50,100,91,72,0.00,40.00,5,3,8,0.35
2013-6-20,64,55,51,51,50,49,96,86,62,0.00,40.00,4,2,7,0.03
2013-6-21,68,66,63,52,52,51,68,60,56,0.00,40.00,5,4,9,0.00
2013-6-22,70,62,49,58,55,49,100,78,56,0.00,40.00,4,3,8,0.01
2013-6-23,65,59,53,62,58,53,100,98,90,0.00,40.00,6,3,12,0.50
2013-6-24,62,56,52,56,53,51,100,92,79,0.00,40.00,7,4,13,0.37
2013-6-25,63,58,54,58,55,53,100,91,71,0.00,40.00,8,6,14,0.45
2013-6-26,69,62,56,62,59,56,100,91,77,0.00,40.00,5,3,9,0.16
2013-6-27,69,62,56,61,59,56,100,90,77,0.00,40.00,4,2,9,0.01
2013-6-28,79,66,56,64,58,54,100,80,46,0.00,40.00,4,2,7,0.00
2013-6-29,84,67,56,62,58,55,99,78,46,0.00,40.00,6,2,10,0.00
2013-6-30,76,64,58,64,59,57,100,84,57,0.00,40.00,5,3,9,0.00
2013-7-1,69,61,56,61,58,56,100,91,73,0.00,40.00,6,4,11,0.00
2013-7-2,65,59,56,61,58,56,100,94,80,0.00,40.00,8,5,16,0.01
2013-7-3,65,59,54,56,54,53,99,86,68,0.00,40.00,9,6,16,0.01
2013-7-4,63,58,52,54,52,50,97,82,66,0.00,40.00,8,6,18,0.00
2013-7-5,63,57,51,54,52,50,97,82,64,0.00,40.00,8,6,17,0.00
2013-7-6,64,56,50,55,52,49,97,85,66,0.00,40.00,8,5,17,0.00
2013-7-7,63,58,54,54,53,52,94,85,71,0.00,40.00,8,6,16,0.00
2013-7-8,64,56,50,54,52,49,97,87,68,0.00,40.00,9,5,18,0.00
2013-7-9,60,53,50,56,52,50,100,98,84,0.00,40.00,7,5,14,0.01
2013-7-10,60,54,50,54,48,-100,100,86,72,0.00,40.00,8,6,18,0.02
2013-7-11,63,54,47,50,48,46,98,82,56,0.00,40.00,8,4,16,0.01
2013-7-12,62,55,46,52,49,46,99,83,58,0.00,40.00,7,5,14,0.00
2013-7-13,63,54,46,52,49,46,100,84,60,0.00,40.00,8,5,17,0.00
2013-7-14,61,53,48,52,50,48,100,90,73,0.00,40.00,8,6,17,0.00
2013-7-15,60,53,48,52,50,48,100,92,76,0.00,40.00,9,6,15,0.00
2013-7-16,57,54,52,55,52,50,96,92,87,0.00,40.00,3,2,6,0.00
2013-7-17,66,57,50,54,52,49,96,84,64,0.00,40.00,6,3,10,0.00
2013-7-18,62,56,50,54,51,49,99,84,69,0.00,40.00,8,5,16,0.00
2013-7-19,60,55,51,52,51,50,97,88,74,0.00,40.00,9,6,16,0.00
2013-7-20,61,54,51,54,50,-100,99,89,74,0.00,40.00,8,6,18,0.00
2013-7-21,61,54,49,54,52,49,100,94,77,0.00,40.00,7,6,15,0.00
2013-7-22,62,53,49,58,52,49,100,95,76,0.00,40.00,10,6,16,0.01
2013-7-23,59,50,46,54,50,46,100,97,78,0.00,40.00,6,4,13,0.01
2013-7-24,52,49,47,52,49,47,100,100,99,0.00,40.00,6,4,12,0.00
2013-7-25,56,49,46,53,48,46,100,97,81,0.00,40.00,8,5,16,0.01
2013-7-26,59,51,47,51,49,47,100,94,76,0.00,40.00,9,6,17,0.01
2013-7-27,62,54,49,52,51,49,100,89,71,0.00,40.00,8,6,17,0.00
2013-7-28,63,56,50,53,51,49,98,86,70,0.00,40.00,8,5,16,0.00
2013-7-29,66,56,48,53,51,48,100,87,62,0.00,40.00,7,4,12,0.00
2013-7-30,62,57,53,54,53,52,99,88,71,0.00,40.00,5,3,10,0.00
2013-7-31,60,57,54,57,55,53,99,93,85,0.00,40.00,3,2,6,0.00
2013-8-1,65,59,55,58,56,54,100,90,75,0.00,40.00,4,2,7,0.03
2013-8-2,68,59,54,56,55,53,100,85,63,0.00,40.00,8,4,13,0.01
2013-8-3,66,56,52,57,54,52,100,92,72,0.00,40.00,9,5,16,0.00
2013-8-4,56,53,51,55,53,51,100,99,92,0.00,40.00,8,5,14,0.01
2013-8-5,58,53,50,57,52,50,100,97,87,0.00,40.00,8,5,14,0.02
2013-8-6,66,54,48,55,51,48,100,91,67,0.00,40.00,4,3,9,0.00
2013-8-7,57,53,50,56,52,50,100,99,95,0.00,40.00,3,2,6,0.05
2013-8-8,67,56,52,60,55,52,100,95,73,0.00,40.00,6,3,11,0.03
2013-8-9,65,56,52,57,54,52,100,95,71,0.00,40.00,8,4,15,0.06
2013-8-10,62,57,54,58,56,54,100,95,82,0.00,40.00,3,2,6,0.05
2013-8-11,68,59,54,56,55,54,100,88,63,0.00,40.00,5,2,9,0.00
2013-8-12,68,58,50,56,54,50,100,88,62,0.00,40.00,6,3,10,0.00
2013-8-13,75,59,49,58,51,-100,100,80,54,0.00,40.00,5,2,8,0.00
2013-8-14,74,62,52,63,54,-100,100,82,55,0.00,40.00,5,3,11,0.00
2013-8-15,72,60,60,65,52,-100,99,88,77,0.00,40.00,4,2,7,0.00
2013-8-16,73,62,58,61,55,-100,99,83,54,0.00,40.00,4,2,7,0.00
2013-8-17,71,61,55,61,56,-100,99,87,68,0.00,40.00,4,2,10,0.00
2013-8-18,71,61,54,60,57,54,100,88,63,0.00,40.00,7,4,14,0.00
2013-8-19,67,57,54,60,52,-100,100,92,60,0.00,40.00,9,5,15,0.00
2013-8-20,65,58,52,56,53,51,100,85,61,0.00,40.00,7,5,15,0.00
2013-8-21,69,57,48,56,52,48,100,85,56,0.00,40.00,7,4,12,0.00
2013-8-22,62,56,52,57,55,52,100,96,83,0.00,40.00,3,2,6,0.00
2013-8-23,68,59,54,59,56,54,100,91,69,0.00,40.00,3,2,6,0.01
2013-8-24,67,59,53,60,54,-100,100,88,69,0.00,40.00,5,3,10,0.01
2013-8-25,58,54,50,58,54,50,100,99,96,0.00,40.00,3,2,5,0.08
2013-8-26,72,61,50,59,53,49,100,79,44,0.00,40.00,9,4,14,0.01
2013-8-27,73,64,59,60,58,55,91,81,59,0.00,40.00,4,2,6,0.00
2013-8-28,72,66,60,62,60,58,97,82,68,0.00,40.00,5,3,9,0.01
2013-8-29,71,64,60,66,62,59,100,95,76,0.00,40.00,8,4,15,0.23
2013-8-30,74,64,56,67,62,56,100,92,71,0.00,40.00,4,3,9,0.11
2013-8-31,61,56,53,59,54,-100,100,97,90,0.00,40.00,5,3,9,0.02
2013-9-1,73,62,53,63,57,53,100,86,55,0.00,40.00,7,3,11,0.00
2013-9-2,72,65,58,62,59,53,100,84,63,0.00,40.00,6,4,11,0.03
2013-9-3,70,63,57,60,56,53,98,80,63,0.00,40.00,6,3,10,0.03
2013-9-4,71,62,56,61,58,55,100,90,66,0.00,40.00,4,2,7,0.00
2013-9-5,65,59,57,60,58,57,100,96,81,0.00,40.00,3,1,5,0.06
2013-9-6,72,62,58,62,58,57,100,89,64,0.00,40.00,6,3,12,0.06
2013-9-7,69,60,53,60,56,-100,100,90,72,0.00,40.00,7,4,12,0.01
2013-9-8,67,60,56,61,58,56,100,95,78,0.00,40.00,8,5,13,0.00
2013-9-9,64,56,53,60,56,53,100,98,85,0.00,40.00,7,5,15,0.00
2013-9-10,69,56,52,60,55,52,100,95,68,0.00,40.00,7,4,12,0.00
2013-9-11,67,59,53,61,57,53,100,93,76,0.00,40.00,5,3,9,0.00
2013-9-12,64,60,57,60,58,57,100,94,82,0.00,40.00,3,2,4,0.01
2013-9-13,62,58,55,58,57,55,100,95,86,0.00,40.00,6,3,10,0.02
2013-9-14,61,57,55,60,56,-100,100,98,96,0.00,40.00,4,3,6,0.05
2013-9-15,60,57,55,57,56,54,100,94,85,0.00,40.00,5,3,10,0.05
2013-9-16,70,61,56,59,56,53,100,84,64,0.00,40.00,4,2,7,0.01
2013-9-17,65,59,54,58,56,54,100,90,73,0.00,40.00,5,3,10,0.02
2013-9-18,56,54,53,54,53,52,100,98,89,0.00,40.00,3,2,7,0.10
2013-9-19,68,59,49,56,51,46,99,78,57,0.00,40.00,3,2,7,0.06
2013-9-20,60,56,52,60,54,46,99,90,67,0.00,40.00,6,3,10,0.37
2013-9-21,63,56,53,57,53,-100,100,92,76,0.00,40.00,5,3,11,0.99
2013-9-22,60,57,55,57,54,51,95,89,72,0.00,40.00,9,6,18,0.08
2013-9-23,66,59,55,56,55,54,95,88,67,0.00,40.00,5,3,10,0.01
2013-9-24,60,55,49,55,52,49,100,91,69,0.00,40.00,5,3,10,0.43
2013-9-25,59,51,46,51,48,46,99,88,66,0.00,40.00,4,2,7,0.67
2013-9-26,63,51,43,53,48,43,99,88,60,0.00,40.00,5,2,9,0.01
2013-9-27,60,52,44,58,50,44,100,94,70,0.00,40.00,6,3,10,0.20
2013-9-28,60,57,52,58,55,-100,100,95,87,0.00,40.00,12,8,22,1.47
2013-9-29,60,56,53,60,55,52,100,97,93,0.00,40.00,12,8,23,4.21
2013-9-30,61,55,52,55,50,48,99,84,68,0.00,40.00,6,5,14,1.57
2013-10-1,59,52,46,49,46,45,96,84,69,0.00,40.00,3,2,6,0.12
2013-10-2,58,48,40,51,45,40,99,91,62,0.00,40.00,5,2,8,0.11
2013-10-3,60,50,43,52,46,43,100,88,64,0.00,40.00,5,2,7,0.01
2013-10-4,69,52,42,51,46,41,98,83,47,0.00,40.00,6,4,9,0.01
2013-10-5,74,57,46,51,44,37,95,66,31,0.00,40.00,4,3,6,0.01
2013-10-6,70,58,50,54,46,39,93,69,32,0.00,40.00,7,3,11,0.00
2013-10-7,61,55,49,53,51,46,99,86,60,0.00,40.00,4,2,8,0.23
2013-10-8,54,50,46,51,49,45,99,96,91,0.00,40.00,3,1,6,0.09
2013-10-9,58,49,41,49,46,40,99,90,70,0.00,40.00,4,3,10,0.07
2013-10-10,63,52,43,51,47,42,98,84,51,0.00,40.00,4,2,9,0.00
2013-10-11,58,51,47,48,45,41,94,81,56,0.00,40.00,5,3,10,0.00
2013-10-12,58,49,46,52,46,-100,99,91,78,0.00,40.00,4,2,7,0.13
2013-10-13,58,49,41,50,46,41,99,91,71,0.00,40.00,6,3,11,0.01
2013-10-14,62,51,43,50,46,42,97,84,62,0.00,40.00,5,3,11,0.01
2013-10-15,66,52,44,47,45,42,94,77,48,0.00,40.00,6,4,11,0.00
2013-10-16,62,52,44,52,46,41,99,81,55,0.00,40.00,6,3,10,0.00
2013-10-17,59,51,47,52,50,47,100,94,73,0.00,40.00,7,4,11,0.00
2013-10-18,69,53,42,55,48,42,100,86,59,0.00,40.00,5,3,9,0.00
2013-10-19,64,52,47,53,48,-100,99,88,65,0.00,40.00,6,3,10,0.00
2013-10-20,56,49,45,55,49,45,100,98,88,0.00,40.00,7,4,11,0.00
2013-10-21,60,49,43,56,48,43,100,97,84,0.00,40.00,4,2,8,0.01
2013-10-22,52,49,47,52,49,47,100,100,99,0.00,40.00,2,1,4,0.02
2013-10-23,50,48,45,50,48,45,100,100,99,0.00,40.00,3,2,5,0.02
2013-10-24,51,49,47,51,49,47,100,100,100,0.00,40.00,4,2,8,0.02
2013-10-25,51,50,49,51,50,49,100,100,100,0.00,40.00,3,2,6,0.02
2013-10-26,53,48,46,51,46,-100,100,96,87,0.00,40.00,6,4,11,0.01
2013-10-27,52,49,46,51,47,46,99,95,86,0.00,40.00,4,2,9,0.04
2013-10-28,57,48,43,48,43,-100,100,87,67,0.00,40.00,4,2,8,0.04
2013-10-29,58,46,37,45,40,35,97,81,57,0.00,40.00,3,2,5,0.00
2013-10-30,58,46,38,45,40,37,97,82,49,0.00,40.00,2,1,4,0.00
2013-10-31,59,52,47,56,48,40,100,86,68,0.00,40.00,3,2,5,0.01
2013-11-1,66,52,45,60,50,45,100,95,74,0.00,40.00,4,3,6,0.01
2013-11-2,56,50,47,51,45,-100,100,88,70,0.00,40.00,8,3,13,0.34
2013-11-3,53,46,41,48,44,40,98,92,78,0.00,40.00,2,1,7,0.12
2013-11-4,50,45,39,49,44,39,99,98,94,0.00,40.00,4,2,6,0.06
2013-11-5,56,52,49,54,51,48,100,96,92,0.00,40.00,5,4,9,0.35
2013-11-6,57,54,52,56,54,52,100,99,96,0.00,40.00,4,2,6,0.15
2013-11-7,53,50,47,53,50,46,100,99,96,0.00,40.00,8,4,14,0.62
2013-11-8,55,47,42,50,45,42,100,95,74,0.00,40.00,4,2,7,0.02
2013-11-9,59,46,40,48,43,-100,99,90,65,0.00,40.00,2,1,5,0.00
2013-11-10,58,50,46,51,47,44,99,90,66,0.00,40.00,4,2,6,0.00
2013-11-11,63,52,45,56,49,44,100,89,61,0.00,40.00,5,2,8,0.01
2013-11-12,58,54,50,55,52,45,100,93,61,0.00,40.00,6,3,10,0.06
2013-11-13,58,49,43,53,49,43,100,97,81,0.00,40.00,6,3,9,0.03
2013-11-14,50,45,41,47,44,41,100,97,86,0.00,40.00,3,1,6,0.04
2013-11-15,51,46,42,48,44,42,100,95,81,0.00,40.00,5,2,9,0.09
2013-11-16,53,48,45,49,45,-100,100,94,84,0.00,40.00,6,3,10,0.54
2013-11-17,54,48,45,49,45,41,99,88,73,0.00,40.00,5,3,7,0.14
2013-11-18,54,49,44,52,46,41,96,89,79,0.00,40.00,9,5,15,0.88
2013-11-19,54,50,42,54,49,37,100,96,82,0.00,40.00,8,6,15,1.60
2013-11-20,46,39,34,37,32,29,85,76,61,0.00,40.00,5,4,13,0.01
2013-11-21,48,37,30,29,23,20,83,60,36,0.00,40.00,5,4,9,0.00
2013-11-22,57,42,29,32,27,23,88,58,38,0.00,40.00,4,3,8,0.00
2013-11-23,67,52,41,40,30,-100,65,47,29,0.00,40.00,4,3,9,0.00
2013-11-24,62,49,37,38,34,29,82,59,35,0.00,40.00,3,2,6,0.00
2013-11-25,57,46,38,44,38,32,94,74,49,0.00,40.00,3,2,5,0.00
2013-11-26,58,47,39,44,39,34,92,76,49,0.00,40.00,3,2,5,0.00
2013-11-27,60,48,38,45,40,36,94,76,50,0.00,40.00,3,2,5,0.00
2013-11-28,60,46,39,49,42,38,97,87,65,0.00,40.00,6,3,8,0.00
2013-11-29,53,44,37,46,42,36,98,93,71,0.00,40.00,5,2,9,0.00
2013-11-30,53,45,40,49,43,-100,99,94,80,0.00,40.00,3,2,6,0.01
2013-12-1,53,51,48,53,51,45,100,99,83,0.00,40.00,7,5,13,0.30
2013-12-2,51,45,35,51,44,34,100,96,82,0.00,40.00,8,3,16,1.26
2013-12-3,44,36,31,42,35,31,99,97,86,0.00,40.00,3,1,9,0.20
2013-12-4,38,30,26,31,23,19,98,76,51,0.00,40.00,4,3,6,0.01
2013-12-5,43,30,22,28,23,20,94,76,48,0.00,40.00,3,2,4,0.01
2013-12-6,42,35,30,40,33,25,98,91,72,0.00,40.00,6,3,10,0.60
2013-12-7,32,27,21,28,21,-100,93,82,53,0.00,40.00,4,3,7,0.01
2013-12-8,37,26,19,23,18,14,92,74,43,0.00,40.00,4,3,8,0.01
2013-12-9,42,30,22,25,21,17,86,69,44,0.00,40.00,5,2,9,0.01
2013-12-10,44,34,27,33,28,24,94,80,62,0.00,40.00,3,2,6,0.00
2013-12-11,53,38,31,36,31,28,94,77,50,0.00,40.00,3,2,6,0.00
2013-12-12,47,41,34,42,37,30,99,86,73,0.00,40.00,6,3,11,0.38
2013-12-13,54,46,42,50,45,42,99,96,80,0.00,40.00,3,2,5,0.24
2013-12-14,46,40,37,46,39,-100,99,98,98,0.00,40.00,3,1,5,0.01
2013-12-15,53,41,35,48,40,35,99,96,82,0.00,40.00,4,2,7,0.01
2013-12-16,54,42,35,47,40,35,99,93,70,0.00,40.00,5,4,7,0.00
2013-12-17,49,42,35,42,39,34,99,90,76,0.00,40.00,5,3,10,0.01
2013-12-18,44,40,37,44,40,35,100,98,83,0.00,40.00,6,2,11,0.02
2013-12-19,42,36,31,35,31,29,96,83,62,0.00,40.00,5,2,10,0.01
2013-12-20,48,39,31,48,35,28,100,87,60,0.00,40.00,4,3,9,0.72
2013-12-21,51,46,44,49,45,-100,100,98,89,0.00,40.00,4,2,6,1.00
2013-12-22,56,47,44,53,46,44,100,98,86,0.00,40.00,3,1,5,0.01
2013-12-23,49,46,43,49,46,43,100,100,100,0.00,40.00,3,1,6,0.05
2013-12-24,50,42,36,47,41,36,100,98,91,0.00,40.00,5,4,7,0.04
2013-12-25,48,39,31,44,38,31,100,96,79,0.00,40.00,5,3,7,0.01
2013-12-26,56,42,35,44,39,34,99,90,60,0.00,40.00,3,1,5,0.01
2013-12-27,47,44,40,45,41,38,99,90,72,0.00,40.00,3,2,7,0.01
2013-12-28,47,40,35,44,38,-100,100,93,80,0.00,40.00,5,4,9,0.00
2013-12-29,53,40,32,38,34,31,97,81,53,0.00,40.00,4,4,7,0.00
2013-12-30,49,43,37,41,36,31,93,75,57,0.00,40.00,4,2,6,0.00
2013-12-31,54,43,38,47,41,36,99,92,73,0.00,40.00,4,2,7,0.00
2014-1-1,51,42,34,45,40,33,99,91,71,0.00,40.00,3,2,5,0.01
2014-1-2,55,46,40,45,40,37,97,81,67,0.00,40.00,2,1,5,0.01